User: anonymous   Login
Location: Diebersbach
(48.5163°N, 8.0558°E)
Time: 17:31:29
(UTC+00:00)
Language:

IRS-1D - Orbit

View from above orbital plane
View from above orbital plane
View from above satellite
View from above satellite

Ground track
Ground track

The orbit data is extracted from the following two-line orbital elements,

1 24971U 97057A   21264.34827334  .00000023  00000-0  24034-4 0  9992
2 24971  98.6158 212.2370 0052485 288.9635  70.5864 14.34048346254585
Epoch (UTC): 21 September 2021 08:21:30
Eccentricity: 0.0052485
inclination: 98.6158°
perigee height: 740 km
apogee height: 816 km
right ascension of ascending node: 212.2370°
argument of perigee: 288.9635°
revolutions per day: 14.34048346
mean anomaly at epoch: 70.5864°
orbit number at epoch: 25458

The dashed part of the orbit path shows where the satellite is in the earth's shadow,  

DLR